Weather History for Carmi, IL

Change the Weather History Date:

Saturday, May 18, 2013

  Actual Average (KEVV) Record (KEVV)
Temperature  
Mean Temperature 72 °F 66 °F  
Max Temperature 79 °F 77 °F 93 °F (1962)
Min Temperature 65 °F 55 °F 41 °F (2002)
Degree Days  
Heating Degree Days 0 2  
Month to date heating degree days 66  
Since 1 July heating degree days 4521  
Cooling Degree Days 7 4  
Month to date cooling degree days 43  
Year to date cooling degree days 70  
Growing Degree Days 22 (Base 50)    
Moisture  
Dew Point 65 °F    
Average Humidity 79    
Maximum Humidity 94    
Minimum Humidity 62    
Precipitation  
Precipitation 0.00 in 0.17 in 2.61 in (1928)
Month to date precipitation 3.14  
Year to date precipitation 18.02  
Snow  
Snow 0.00 in 0.00 in 0.00 in (2002)
Month to date snowfall 0.0  
Since 1 July snowfall 11.8  
Snow Depth -    
Sea Level Pressure  
Sea Level Pressure 29.98 in    
Wind  
Wind Speed 3 mph (ENE)    
Max Wind Speed 7 mph    
Max Gust Speed -    
Visibility 8 miles    
Events      
T = Trace of Precipitation, MM = Missing Value Source: NWS Daily Summary

Daily Weather History Graph

Daily Weather History Graph

Search for Another Location

Airport:

Trip Planner

Search our weather history database for the weather conditions in past years. The results will help you decide how hot, cold, wet, or windy it might be!

Date:

Astronomy

May. 18, 2013 Rise Set
Actual Time 5:39 AM CDT 7:59 PM CDT
Civil Twilight 5:09 AM CDT 8:29 PM CDT
Nautical Twilight 4:32 AM CDT 9:05 PM CDT
Astronomical Twilight 3:52 AM CDT 9:46 PM CDT
Moon 1:08 PM CDT (5/18) 1:24 AM CDT (5/18)
Length of Visible Light 15h 19m
Length of Day
14h 19m
First Quarter, 55% of the Moon is Illuminated
May 18
First Quarter
May 24
Full
May 31
Last Quarter
Jun 8
New
Jun 16
First Quarter

Hourly Weather History & Observations

Time (CDT) Temp. Dew Point Humidity Pressure Visibility Wind Dir Wind Speed Gust Speed Precip Events Conditions
12:15 AM 68.0 °F 63.7 °F 86% 29.99 in 10.0 mi East 6.9 mph - N/A   Overcast
12:35 AM 68.0 °F 63.5 °F 85% 29.98 in 10.0 mi East 5.8 mph - N/A   Overcast
12:55 AM 68.0 °F 63.5 °F 85% 29.97 in 10.0 mi East 4.6 mph - N/A   Overcast
1:15 AM 68.0 °F 63.5 °F 85% 29.98 in 10.0 mi East 3.5 mph - N/A   Overcast
1:35 AM 67.6 °F 63.5 °F 87% 29.97 in 10.0 mi East 5.8 mph - N/A   Overcast
1:55 AM 67.3 °F 63.3 °F 87% 29.97 in 10.0 mi East 4.6 mph - N/A   Overcast
2:15 AM 67.1 °F 63.0 °F 87% 29.97 in 10.0 mi ENE 3.5 mph - N/A   Mostly Cloudy
2:35 AM 66.2 °F 63.0 °F 89% 29.97 in 7.0 mi Calm Calm - N/A   Mostly Cloudy
2:55 AM 65.5 °F 62.6 °F 90% 29.98 in 7.0 mi Calm Calm - N/A   Mostly Cloudy
3:15 AM 65.7 °F 63.1 °F 92% 29.98 in 7.0 mi North 3.5 mph - N/A   Overcast
3:35 AM 66.2 °F 63.5 °F 91% 29.98 in 7.0 mi NE 3.5 mph - N/A   Overcast
3:55 AM 66.7 °F 63.7 °F 90% 29.98 in 10.0 mi NNE 3.5 mph - N/A   Overcast
4:15 AM 66.9 °F 63.7 °F 89% 29.98 in 10.0 mi Calm Calm - N/A   Overcast
4:35 AM 66.4 °F 63.7 °F 91% 29.98 in 10.0 mi Calm Calm - N/A   Overcast
4:55 AM 66.4 °F 63.7 °F 91% 29.98 in 10.0 mi Calm Calm - N/A   Overcast
5:15 AM 66.6 °F 64.0 °F 92% 29.99 in 10.0 mi Calm Calm - N/A   Overcast
5:35 AM 66.7 °F 63.9 °F 90% 29.98 in 10.0 mi Calm Calm - N/A   Overcast
5:55 AM 65.8 °F 63.5 °F 92% 29.99 in 7.0 mi Calm Calm - N/A   Overcast
6:15 AM 66.4 °F 64.2 °F 93% 30.00 in 5.0 mi NE 3.5 mph - N/A   Overcast
6:35 AM 67.3 °F 64.6 °F 91% 30.00 in 7.0 mi NE 4.6 mph - N/A   Overcast
6:55 AM 68.0 °F 64.6 °F 89% 30.00 in 7.0 mi NE 3.5 mph - N/A   Overcast
7:15 AM 69.6 °F 65.3 °F 86% 30.00 in 7.0 mi ENE 4.6 mph - N/A   Overcast
7:35 AM 70.7 °F 65.3 °F 83% 30.00 in 7.0 mi East 4.6 mph - N/A   Mostly Cloudy
7:55 AM 70.5 °F 64.9 °F 82% 30.00 in 10.0 mi ENE 4.6 mph - N/A   Mostly Cloudy
8:15 AM 70.7 °F 64.8 °F 81% 30.01 in 10.0 mi East 4.6 mph - N/A   Mostly Cloudy
8:35 AM 70.3 °F 65.1 °F 83% 30.01 in 7.0 mi East 5.8 mph - N/A   Overcast
8:55 AM 70.3 °F 65.3 °F 84% 30.02 in 7.0 mi ENE 4.6 mph - N/A   Overcast
9:15 AM 71.1 °F 65.3 °F 82% 30.02 in 10.0 mi East 4.6 mph - N/A   Overcast
9:35 AM 71.2 °F 65.1 °F 81% 30.01 in 10.0 mi Calm Calm - N/A   Overcast
9:55 AM 72.1 °F 65.1 °F 78% 30.02 in 10.0 mi Calm Calm - N/A   Overcast
10:15 AM 73.0 °F 65.1 °F 76% 30.01 in 10.0 mi Calm Calm - N/A   Overcast
10:35 AM 73.9 °F 64.9 °F 73% 30.01 in 10.0 mi Calm Calm - N/A   Overcast
10:55 AM 73.6 °F 64.9 °F 74% 30.02 in 7.0 mi ENE 3.5 mph - N/A   Overcast
11:15 AM 72.5 °F 65.3 °F 78% 30.02 in 10.0 mi East 5.8 mph - N/A   Overcast
11:35 AM 72.0 °F 64.8 °F 78% 30.01 in 10.0 mi ENE 5.8 mph - N/A   Overcast
11:55 AM 72.1 °F 65.1 °F 78% 30.01 in 10.0 mi ENE 5.8 mph - N/A   Overcast
12:15 PM 73.6 °F 65.3 °F 75% 30.00 in 10.0 mi NE 4.6 mph - N/A   Overcast
12:35 PM 74.1 °F 65.3 °F 74% 30.00 in 10.0 mi NNE 3.5 mph - N/A   Overcast
12:55 PM 75.2 °F 65.3 °F 71% 29.99 in 10.0 mi NE 3.5 mph - N/A   Overcast
1:15 PM 75.4 °F 65.3 °F 71% 29.98 in 10.0 mi East 5.8 mph - N/A   Overcast
1:35 PM 76.8 °F 64.9 °F 67% 29.98 in 10.0 mi ESE 4.6 mph - N/A   Overcast
1:55 PM 76.6 °F 64.2 °F 65% 29.98 in 10.0 mi Calm Calm - N/A   Overcast
2:15 PM 77.2 °F 64.0 °F 64% 29.98 in 2.5 mi Calm Calm - N/A   Haze
2:35 PM 77.4 °F 63.7 °F 63% 29.97 in 5.0 mi Calm Calm - N/A   Haze
2:55 PM 77.0 °F 63.5 °F 63% 29.97 in 10.0 mi Calm Calm - N/A   Overcast
3:15 PM 77.2 °F 64.2 °F 64% 29.97 in 3.0 mi Calm Calm - N/A   Haze
3:35 PM 77.5 °F 64.9 °F 65% 29.96 in 7.0 mi Calm Calm - N/A   Overcast
3:55 PM 77.4 °F 65.3 °F 66% 29.96 in 10.0 mi SE 5.8 mph - N/A   Overcast
4:15 PM 77.9 °F 65.7 °F 66% 29.96 in 10.0 mi SE 4.6 mph - N/A   Overcast
4:35 PM 77.7 °F 65.3 °F 65% 29.96 in 10.0 mi SSE 4.6 mph - N/A   Overcast
4:55 PM 77.0 °F 65.3 °F 67% 29.96 in 10.0 mi Calm Calm - N/A   Overcast
5:15 PM 77.7 °F 65.7 °F 66% 29.96 in 7.0 mi Calm Calm - N/A   Overcast
5:35 PM 79.7 °F 65.7 °F 62% 29.96 in 10.0 mi ENE 3.5 mph - N/A   Mostly Cloudy
5:55 PM 77.9 °F 64.9 °F 64% 29.95 in 7.0 mi Calm Calm - N/A   Scattered Clouds
6:15 PM 78.4 °F 64.9 °F 63% 29.95 in 7.0 mi Calm Calm - N/A   Clear
6:35 PM 78.8 °F 64.8 °F 62% 29.95 in 7.0 mi Calm Calm - N/A   Clear
6:55 PM 78.3 °F 65.3 °F 64% 29.95 in 10.0 mi Calm Calm - N/A   Clear
7:15 PM 78.4 °F 64.8 °F 63% 29.94 in 10.0 mi Calm Calm - N/A   Clear
7:35 PM 75.6 °F 66.0 °F 72% 29.95 in 5.0 mi Calm Calm - N/A   Haze
7:55 PM 74.7 °F 66.0 °F 74% 29.95 in 10.0 mi Calm Calm - N/A   Clear
8:15 PM 72.5 °F 65.3 °F 78% 29.95 in 10.0 mi ESE 3.5 mph - N/A   Clear
8:35 PM 70.7 °F 64.8 °F 81% 29.96 in 10.0 mi ESE 4.6 mph - N/A   Clear
8:55 PM 69.3 °F 64.4 °F 84% 29.96 in 10.0 mi East 5.8 mph - N/A   Clear
9:15 PM 70.0 °F 64.9 °F 84% 29.95 in 7.0 mi East 5.8 mph - N/A   Clear
9:35 PM 69.4 °F 64.4 °F 84% 29.96 in 10.0 mi East 5.8 mph - N/A   Clear
9:55 PM 67.3 °F 64.4 °F 90% 29.96 in 7.0 mi Calm Calm - N/A   Clear
10:35 PM 66.4 °F 63.9 °F 92% 29.95 in 5.0 mi ESE 3.5 mph - N/A   Clear
10:55 PM 66.2 °F 64.2 °F 93% 29.94 in 7.0 mi Calm Calm - N/A   Clear
11:15 PM 66.2 °F 63.9 °F 92% 29.94 in 5.0 mi Calm Calm - N/A   Clear
11:35 PM 65.8 °F 63.7 °F 93% 29.94 in 5.0 mi Calm Calm - N/A   Clear
11:55 PM 65.7 °F 63.9 °F 94% 29.94 in 5.0 mi Calm Calm - N/A   Clear